sat.trackr.live / text

‹ back to catalog

STARLINK-4362

NORAD 53043 · 2022-077A

PAYLOAD ACTIVE UNKNOWN

§ Identity

Operator
Country
US
Launch date
2022-07-11
Launch site
AFWTR
Launch vehicle
Mass (kg)
RCS (m²)

Purposes: comms

External: N2YO · Heavens-Above · Gunter

§ Orbital elements

Epoch: 2026-09-19T18:18:07.290432Z

Period
93.91 min
Inclination
97.2846°
Eccentricity
0.0001737
Mean motion
15.33439022 rev/d
Perigee alt
464.4 km
Apogee alt
466.7 km
Semi-major
6,843.7 km
B*
2.4063e-5
RAAN
77.5763°
Arg perigee
87.9117°
Mean anomaly
272.2325°
Rev number
23,018

§ Raw data

STARLINK-43621 53043U 22077A   26262.76258438  .00000702  00000+0  24063-4 0  99912 53043  97.2846  77.5763 0001737  87.9117 272.2325 15.33439022230188

JSON: /api/v1/satellites/53043 · /tle

For live sub-satellite position, see the globe view (requires WebGL).

§ Visibility from observer

Set your observer location to see the next 7 days of passes ≥ 10°. The values pass through the URL so the page stays shareable.

No JS? Fill the form by hand. The geolocation button needs JavaScript.

§ Radio — SatNOGS DB

ModeDescriptionDownlinkUplink
CW Ku-band 11325 MHz beacon 11.325 GHz
CW Ku-band 11575 MHz beacon 11.575 GHz
CW Ku-band 11950 MHz beacon 11.950 GHz
CW Ku-band 12450 MHz beacon 12.450 GHz

4 transmitters · refreshed weekly from db.satnogs.org